Regional Weather Roundup
Issued by NWS

Home | Current Version | Previous Version | Graphics & Text | Print | Product List | Glossary On
Versions: 1 2 3 4 5 6 7 8 9 10 11 12 13 14 15 16 17 18 19 20 21 22 23 24 25 26 27 28 29 30 31 32 33 34 35 36 37 38 39 40 41 42 43 44 45 46 47 48 49 50
575
ASUS45 KSLC 272310
RWRUT

UTAH REGIONAL WEATHER ROUNDUP
NATIONAL WEATHER SERVICE SALT LAKE CITY UT
500 PM MDT SAT AUG 27 2016

UTZ001>011-023>025-280000-

NORTHERN UTAH

CITY           SKY/WX    TMP DP  RH WIND       PRES   REMARKS
BRIGHAM CITY     N/A     85  17   8 SW14      30.00F
HILL AFB       SUNNY     83  27  12 VRB3      30.04F
LOGAN          SUNNY     84  27  12 S6        30.01F
OGDEN          SUNNY     84  26  12 W7        30.01F
PROVO AIRPORT  MOSUNNY   86  36  16 MISG      30.01F
SALT LAKE CITY MOSUNNY   88  29  12 N9G21     29.99F
VERNAL         SUNNY     80  37  21 SW5       30.07F
WENDOVER       SUNNY     88  27  11 SE13      29.99F
HEBER CITY     SUNNY     82  25  12 S7        30.06S
WEST JORDAN    SUNNY     83  33  16 N9        30.03S

$$

UTZ012>022-026-027-280000-

SOUTHERN/CENTRAL UTAH

CITY           SKY/WX    TMP DP  RH WIND       PRES   REMARKS
BLANDING       CLOUDY    69  47  44 S10       30.25F
BRYCE CANYON   CLOUDY    56  43  61 NE3       30.30F
CEDAR CITY     CLOUDY    66  48  52 SW8       30.15F
MILFORD        CLOUDY    76  43  30 S16       30.09F
MOAB/CYNLANDS  CLOUDY    80  40  23 CALM      30.06F
PRICE          MOSUNNY   78  37  22 S8        30.13S
ST GEORGE      CLEAR     75  52  43 SW3       30.07S

$$

REGIONAL REPORTS     COLORADO/ARIZONA

CITY           SKY/WX    TMP DP  RH WIND       PRES   REMARKS
CRAIG, CO      CLOUDY    78  27  15 W10       30.14S
GRAND JUNCTION CLOUDY    78  40  25 SE3       30.09F
RIFLE          CLOUDY    77  43  29 N5        30.11F
MONTROSE       CLOUDY    71  46  40 SE24      30.20S
CORTEZ         CLOUDY    69  48  47 W13G18    30.18S
PAGE, AZ       PTSUNNY   72  51  47 N8        30.12S
GRAND CANYON   CLOUDY    64  49  57 MISG      30.22F
KINGMAN        PTSUNNY   76  53  44 VRB5      30.06F
FLAGSTAFF      MOSUNNY   66  45  46 SW15G21   30.23F

$$

REGIONAL REPORTS    NEVADA/IDAHO/WYOMING

CITY           SKY/WX    TMP DP  RH WIND       PRES   REMARKS
LAS VEGAS, NV  PTSUNNY   90  45  21 NE9       29.93F
ELY            SUNNY     81  20  10 MISG      30.11F
ELKO           SUNNY     86  16   7 SW9G22    30.03F
POCATELLO, ID  SUNNY     85  28  12 W18       29.99F
BURLEY         SUNNY     82  36  19 W8        29.96F
EVANSTON, WY   SUNNY     75  19  12 W12       30.18S
ROCK SPRINGS   SUNNY     76  18  11 SW8       30.12F

$$




USA.gov is the U.S. government's official web portal to all federal, state and local government web resources and services.